Simultaneous Nadir Overpasses (SNOs) Predictions

Prediction of SNOs between GOES-17 and NOAA-19 Satellite Orbit:

Table of predicted SNOs for the next 14.0 days since TLE Epoch: 9/5/2020
Index Date Time (GOES-17) GOES-17 Lat,Lon NOAA-19 Lat,Lon Distance(km) Time Diff (sec)
1 09/06/2020 03:14:50 -0.01,-137.19 -0.02,-137.14 5.63 80
2 09/07/2020 03:05:49 -0.01,-137.20 0.65,-134.28 333.00 80
3 09/09/2020 15:24:04 0.01,-137.25 0.48,-139.23 226.96 80
4 09/10/2020 15:15:03 0.01,-137.26 -0.21,-136.38 100.44 80
5 09/11/2020 15:03:21 0.01,-137.26 -0.85,-133.52 427.56 80
6 09/13/2020 03:33:24 0.00,-137.26 -0.93,-141.35 466.46 80
7 09/14/2020 03:21:42 0.01,-137.26 -0.25,-138.50 139.98 80
8 09/15/2020 03:12:40 0.01,-137.27 0.37,-135.63 186.43 80
9 09/17/2020 15:30:54 -0.02,-137.28 0.76,-140.57 375.97 80
10 09/18/2020 15:21:52 -0.02,-137.28 0.06,-137.72 49.86 80
